Probability
0 0 0 0 0 0 0 0 0 0 0 0 0 0 0 0 0 0 0 0 0 0 0 0 0 0 0 0 0 0 0 0 0 0 0 0 0 0 0 0 0 0 0
0 0 0 0 0 0 0 0 0 0 0 0 0 0 0 0 0 0 0 0 0 0 0 0 0 0 0 0 0 0 0 0 0 0 0 0 0 0 0 0 0 0 0
0 0 0 0 0 0 0 0 0 0 0 0 0 0 0 0 0 0 0 0 0 0 0 0 0 0 0 0 0 0 0 0 0 0 0 0 0 0 0 0 0 0 0
0 0 0 0 0 0 0 0 0 0 0 0 0 0 0 0 0 0 0 0 0 0 0 0 0 0 0 0 0 0 0 0 0 0 0 0 0 0 0 0 0 0 0
0 0 0 0 0 0 0 0 0 0 0 0 0 0 0 0 0 0 0 0 0 0 0 0 0 0 0 0 0 0 0 0 0 0 0 0 0 0 0 0 0 0 0
0 0 0 0 0 0 0 0 0 0 0 0 0 0 0 0 0 0 0 0 0 0 0 0 0 0 0 0 0 0 0 0 0 0 0 0 0 0 0 0 0 0 0
0 0 0 0 0 0 0 0 0 0 0 0 0 0 0 0 0 0 0 0 0 0 0 0 0 0 0 0 0 0 0 0 0 0 0 0 0 0 0 0 0 0 0
0 0 0 0 0 0 0 0 0 0 0 0 0 0 0 0 0 0 0 0 0 0 0 0 0 0 0 0 0 0 0 0 0 0 0 0 0 0 0 0 0 0 0
0 0 0 0 0 0 0 0 0 0 0 0 0 0 0 0 0 0 0 0 0 0 0 0 0 0 0 0 0 0 0 0 0 0 0 0 0 0 0 0 0 0 0
0 0 0 0 0 0 0 0 0 0 0 0 0 0 0 0 0 0 0 0 0 0 0 0 0 0 0 0 0 0 0 0 0 0 0 0 0 0 0 0 0 0 0
0 0 0 0 0 0 0 0 0 0 0 0 0 0 0 0 0 0 0 0 0 0 0 0 0 0 0 0 0 0 0 0 0 0 0 0 0 0 0 0 0 0 0
0 0 0 0 0 0 0 0 0 0 0 0 0 0 0 0 0 0 0 0 0 0 0 0 0 0 0 0 0 0 0 0 0 0 0 0 0 0 0 0 0 0 0
0 0 0 0 0 0 0 0 0 0 0 0 0 0 0 0 0 0 0 0 0 0 0 0 0 0 0 0 0 0 0 0 0 0 0 0 0 0 0 0 0 0 0
0 0 0 0 0 0 0 0 0 0 0 0 0 0 0 0 0 0 0 0 0 0 0 0 0 0 0 0 0 0 0 0 0 0 0 0 0 0 0 0 0 0 0
0 0 0 0 0 0 0 0 0 0 0 0 0 0 0 0 0 0 0 0 0 0 0 0 0 0 0 0 0 0 0 0 0 0 0 0 0 0 0 0 0 0 0
0 0 0 0 0 0 0 0 0 0 0 0 0 0 0 0 0 0 0 0 0 0 0 0 0 0 0 0 0 0 0 0 0 0 0 0 0 0 0 0 0 0 0
0 0 0 0 0 0 0 0 0 0 0 0 0 0 0 0 0 0 0 0 0 0 0 0 0 0 0 0 0 0 0 0 0 0 0 0 0 0 0 0 0 0 0
0 0 0 0 0 0 0 0 0 0 0 0 0 0 0 0 0 0 0 0 0 0 0 0 0 0 0 0 0 0 0 0 0 0 0 0 0 0 0 0 0 0 0
0 0 0 0 0 0 0 0 0 0 0 0 0 0 0 0 0 0 0 0 0 0 0 0 0 0 0 0 0 0 0 0 0 0 0 0 0 0 0 0 0 0 0
0 0 0 0 0 0 0 0 0 0 0 0 0 0 0 0 0 0 0 0 0 0 0 0 0 0 0 0 0 0 0 0 0 0 0 0 0 0 0 0 0 0 0
0 0 0 0 0 0 0 0 0 0 0 0 0 0 0 0 0 0 0 0 0 0 0 0 0 0 0 0 0 0 0 0 0 0 0 0 0 0 0 0 0 0 0
0 0 0 0 0 0 0 0 0 0 0 0 0 0 0 0 0 0 0 0 0 0 0 0 0 0 0 0 0 0 0 0 0 0 0 0 0 0 0 0 0 0 0
0 0 0 0 0 0 0 0 0 0 0 0 0 0 0 0 0 0 0 0 0 0 0 0 0 0 0 0 0 0 0 0 0 0 0 0 0 0 0 0 0 0 0
0 0 0 0 0 0 0 0 0 0 0 0 0 0 0 0 0 0 0 0 0 0 0 0 0 0 0 0 0 0 0 0 0 0 0 0 0 0 0 0 0 0 0
0 0 0 0 0 0 0 0 0 0 0 0 0 0 0 0 0 0 0 0 0 0 0 0 0 0 0 0 0 0 0 0 0 0 0 0 0 0 0 0 0 0 0
0 0 0 0 0 0 0 0 0 0 0 0 0 0 0 0 0 0 0 0 0 0 0 0 0 0 0 0 0 0 0 0 0 0 0 0 0 0 0 0 0 0 0
Wind_Speed
5 4 3 3 3 2 3 3 3 3 3 3 4 5 5 6 5 5 4 13 15 15 15 14 13 13 12 12 11 11 10 10 9 9 8 7 7 7 7 7 6 6 6
6 5 5 4 4 4 4 4 4 4 4 4 5 6 6 6 6 6 6 9 16 17 17 17 17 16 15 15 14 13 13 12 12 11 10 10 9 9 9 8 8 8 8
7 7 6 6 6 5 5 4 4 3 4 5 6 7 6 7 7 7 7 6 7 15 19 20 19 19 18 18 17 16 15 15 14 13 13 12 12 11 11 10 10 10 10
8 8 7 8 6 5 5 5 4 4 5 5 6 6 6 6 8 8 8 7 6 7 13 21 22 22 21 21 20 19 18 17 16 16 15 15 14 13 13 12 12 11 11
10 9 8 7 7 6 6 7 6 5 6 8 8 7 7 7 8 9 10 10 10 9 8 16 23 24 23 23 22 21 20 19 19 18 17 17 16 15 15 14 14 13 13
10 10 8 8 7 6 7 6 8 7 6 6 7 8 7 8 7 9 12 11 11 13 12 12 11 15 24 25 24 24 23 22 21 20 19 19 18 17 17 16 16 15 15
11 11 10 8 8 9 11 10 7 7 7 3 2 5 7 10 13 12 11 11 13 13 11 11 9 8 9 23 26 26 25 24 23 22 21 20 20 19 18 18 17 17 16
11 11 12 10 9 9 10 9 9 5 5 6 5 2 6 5 6 11 10 10 11 8 9 12 10 10 8 7 15 25 26 26 25 24 23 22 21 21 20 19 19 19 18
11 12 13 12 10 11 11 13 12 11 9 7 8 7 5 7 4 4 6 8 8 8 8 7 10 11 12 10 10 20 27 28 27 26 25 24 23 22 22 21 20 20 20
11 13 13 13 12 11 13 13 13 12 10 9 6 9 10 6 4 6 4 4 6 8 9 9 10 12 12 10 14 21 26 28 29 28 27 26 25 24 23 23 22 22 21
10 12 13 12 13 12 13 13 12 13 12 12 9 6 9 9 8 8 11 6 5 7 9 10 9 9 10 11 10 17 27 28 28 28 28 27 26 26 25 24 23 22 22
6 10 11 12 13 12 13 14 14 13 13 14 12 9 8 7 8 11 15 11 10 7 9 10 9 9 10 10 15 24 27 28 28 28 28 28 27 26 26 25 24 23 22
5 8 9 10 11 12 13 12 12 14 15 15 15 13 12 13 8 8 12 12 10 6 7 8 9 10 10 10 12 25 26 28 28 29 29 28 27 27 26 25 24 24 23
7 7 7 9 11 12 13 12 11 14 13 15 17 16 13 12 11 12 10 9 11 9 7 9 5 10 10 10 15 25 16 27 29 29 29 28 28 27 27 26 25 24 24
6 7 7 8 9 10 12 11 11 13 13 14 15 15 14 12 11 12 11 11 11 12 12 8 8 9 10 10 17 13 11 22 28 28 28 28 28 28 27 26 26 25 24
6 7 8 8 8 9 10 10 10 12 13 13 11 13 15 12 11 11 11 11 12 13 14 5 7 6 9 10 17 13 12 25 29 28 28 28 28 28 27 27 26 26 25
7 7 8 8 8 9 9 9 11 11 13 14 13 14 16 14 13 11 11 12 13 12 18 13 6 7 11 11 11 10 10 12 12 26 27 28 28 27 27 27 27 27 26
8 8 8 9 9 10 9 10 12 12 13 14 14 14 16 13 16 13 12 14 14 14 16 20 8 7 11 10 10 10 10 11 10 21 27 28 27 27 27 27 27 27 26
9 8 8 9 10 10 10 10 11 12 12 13 13 14 15 14 15 13 14 14 12 13 14 16 13 6 7 7 8 9 11 9 10 15 23 26 27 28 28 28 28 27 26
9 10 10 10 11 11 11 11 11 12 12 12 12 13 13 14 15 14 13 14 12 13 12 14 13 8 7 5 7 8 9 8 10 10 15 18 21 26 28 28 28 27 27
10 10 11 11 11 9 10 11 11 12 12 13 12 13 14 17 21 17 13 11 12 12 12 13 13 10 9 7 8 7 11 8 9 8 8 9 9 9 11 20 24 25 26
10 10 11 12 12 11 19 25 19 11 11 12 12 12 13 16 20 26 27 25 20 16 15 14 13 14 12 11 9 9 9 8 8 7 9 10 9 10 8 8 18 24 24
10 11 11 11 13 15 25 26 26 17 11 10 11 10 10 11 17 12 19 25 24 27 25 17 17 16 12 11 11 12 11 10 11 6 7 8 8 10 8 12 23 25 26
11 11 12 12 14 16 25 27 26 16 11 10 10 11 11 11 11 13 11 12 13 14 16 13 12 12 11 10 12 13 12 11 8 6 8 7 6 9 9 8 20 24 25
12 11 12 12 14 16 24 26 26 11 9 11 10 11 12 11 18 22 14 12 13 12 18 23 21 18 20 21 16 10 10 9 9 8 9 7 5 7 7 8 13 23 24
13 13 13 12 14 15 21 26 25 9 10 10 9 10 17 17 19 21 13 11 13 11 9 9 12 14 13 15 21 14 11 10 6 6 8 8 6 5 5 6 8 9 12
Wind_Direction
178 178 183 185 187 175 183 197 205 214 225 232 232 232 236 234 234 233 247 262 268 270 270 269 266 263 260 258 257 257 258 259 261 264 268 272 277 282 288 294 299 303 306
180 182 190 196 199 194 195 199 208 218 230 235 245 240 241 240 238 236 233 254 262 266 268 268 267 265 263 260 257 255 255 256 258 260 261 264 268 272 277 282 285 289 294
185 189 196 204 207 197 196 201 215 220 237 239 246 245 245 242 242 241 238 234 248 260 263 265 267 266 264 262 260 257 255 255 256 257 259 260 262 264 268 272 277 280 283
191 193 204 213 203 192 195 204 207 218 232 236 244 246 244 242 243 243 241 238 233 242 254 257 261 263 263 262 260 258 256 254 254 255 256 257 258 261 263 266 269 272 275
199 202 214 215 193 196 206 216 210 207 228 236 242 246 243 243 245 246 243 239 235 235 233 250 254 256 258 260 260 259 257 254 253 253 254 255 256 258 260 262 265 267 270
206 210 220 215 194 201 213 214 222 214 223 235 253 258 249 243 239 240 244 242 237 234 232 234 243 252 253 254 256 258 257 255 253 252 252 253 254 256 257 259 262 264 265
209 213 224 216 205 216 223 217 216 223 231 207 249 280 264 243 241 241 237 237 238 236 230 228 228 228 246 251 253 254 254 254 253 252 251 251 253 255 256 257 258 260 262
216 217 223 225 216 222 227 220 208 212 220 183 188 241 297 297 245 237 234 233 237 233 230 230 226 226 227 232 245 250 253 254 254 253 252 251 251 253 255 256 257 258 260
222 224 225 226 222 219 227 225 217 214 226 210 196 193 222 249 295 262 232 231 230 226 230 230 228 228 227 227 234 248 249 250 251 251 252 251 251 252 253 254 255 256 257
226 227 229 228 228 225 229 230 222 220 221 226 210 219 227 209 233 289 262 242 233 228 226 229 230 229 227 227 231 235 242 245 247 248 249 250 251 251 252 252 253 254 255
230 230 230 230 232 231 231 232 227 221 220 227 218 206 228 237 228 246 270 255 238 228 225 225 225 225 225 225 227 234 240 241 242 243 245 247 249 250 252 253 253 255 256
241 236 234 234 236 235 235 234 232 227 227 227 228 217 206 207 210 220 246 255 253 233 221 223 222 222 223 225 228 235 239 240 241 242 243 245 248 250 252 254 256 257 257
257 247 236 237 238 239 239 237 234 233 231 230 230 230 228 229 217 218 239 255 257 248 227 223 218 218 222 223 229 238 241 242 241 242 242 243 245 247 250 252 254 256 257
265 262 245 242 243 242 242 239 237 237 236 234 235 232 234 233 227 225 230 244 265 264 235 229 214 216 220 221 226 236 241 243 244 243 243 243 244 245 247 249 251 253 255
275 274 263 254 251 248 246 243 242 241 239 236 236 235 235 236 231 230 229 224 238 263 265 217 207 212 216 220 230 231 228 240 245 246 245 244 244 244 245 247 248 250 253
279 280 276 266 261 256 252 248 248 247 244 242 238 237 237 236 234 230 229 228 226 240 263 235 205 198 210 220 230 230 227 237 244 247 247 246 245 245 245 246 247 249 250
287 282 278 274 269 265 259 253 251 249 248 248 243 240 240 235 235 232 229 229 230 230 252 258 206 202 205 218 229 227 223 231 239 245 248 248 246 246 246 246 247 248 249
286 281 279 276 272 269 263 257 259 255 251 250 247 244 244 239 237 234 231 231 231 228 239 258 243 207 215 216 221 226 227 228 227 241 247 249 248 248 248 247 248 248 249
286 284 279 275 273 271 268 263 259 259 255 253 250 246 246 240 242 237 233 233 232 232 233 248 253 218 218 214 220 229 232 232 228 237 244 248 249 250 250 249 247 247 249
286 284 280 276 273 271 268 267 263 261 259 256 252 248 247 241 242 239 237 236 232 233 234 241 250 236 220 199 207 221 232 227 233 233 240 242 247 250 251 250 248 249 250
283 281 282 281 277 273 270 267 262 259 257 257 254 248 247 247 246 245 240 236 230 232 233 238 245 241 226 204 212 212 230 228 229 223 229 236 242 244 246 251 251 251 250
285 283 281 282 282 280 286 289 286 268 258 256 257 253 249 256 258 258 255 247 232 227 229 232 238 238 232 220 215 216 222 225 234 206 219 231 225 234 234 233 245 249 251
287 286 283 281 282 284 291 292 291 286 272 264 260 259 258 253 259 250 256 260 256 247 235 226 234 235 230 217 214 219 217 218 225 198 195 228 220 230 228 235 241 243 246
289 287 287 285 285 287 294 296 296 291 278 270 263 260 259 257 252 253 245 246 248 253 253 245 237 234 228 219 213 217 220 227 232 214 197 225 216 227 229 228 241 244 245
293 289 287 286 287 291 295 298 297 285 277 272 266 260 260 257 262 266 258 248 248 248 255 253 249 243 234 229 217 213 214 219 227 220 203 217 219 225 229 229 236 243 246
293 293 290 287 286 288 292 297 297 286 280 278 270 262 267 268 267 267 258 250 253 248 237 246 251 255 248 238 232 215 207 214 215 216 196 201 209 202 235 228 225 231 243